TimeMDT,TemperatureF,Dew PointF,Humidity,Sea Level PressureIn,VisibilityMPH,Wind Direction,Wind SpeedMPH,Gust SpeedMPH,PrecipitationIn,Events,Conditions,WindDirDegrees,DateUTC
12:15 AM,32.4,18.5,57,30.14,10.0,Calm,Calm,-,N/A,,Clear,0,2013-05-22 06:15:00
12:35 AM,32.0,18.5,58,30.14,10.0,Calm,Calm,-,N/A,,Clear,0,2013-05-22 06:35:00
12:55 AM,29.3,18.5,64,30.13,10.0,SSE,5.8,-,N/A,,Clear,150,2013-05-22 06:55:00
1:15 AM,27.5,17.4,66,30.12,10.0,Calm,Calm,-,N/A,,Clear,0,2013-05-22 07:15:00
1:35 AM,29.3,17.6,62,30.13,10.0,Calm,Calm,-,N/A,,Clear,0,2013-05-22 07:35:00
1:55 AM,28.8,16.9,61,30.13,10.0,Calm,Calm,-,N/A,,Clear,0,2013-05-22 07:55:00
2:15 AM,25.9,16.5,68,30.13,10.0,Calm,Calm,-,N/A,,Clear,0,2013-05-22 08:15:00
2:35 AM,27.1,17.4,67,30.12,10.0,Calm,Calm,-,N/A,,Clear,0,2013-05-22 08:35:00
2:55 AM,26.2,16.7,67,30.12,10.0,Calm,Calm,-,N/A,,Clear,0,2013-05-22 08:55:00
3:15 AM,25.0,16.5,70,30.12,10.0,Calm,Calm,-,N/A,,Clear,0,2013-05-22 09:15:00
3:35 AM,23.0,15.6,73,30.12,10.0,Calm,Calm,-,N/A,,Clear,0,2013-05-22 09:35:00
3:55 AM,24.1,15.4,70,30.12,10.0,Calm,Calm,-,N/A,,Clear,0,2013-05-22 09:55:00
4:15 AM,21.6,14.4,74,30.12,10.0,Calm,Calm,-,N/A,,Clear,0,2013-05-22 10:15:00
4:35 AM,21.7,14.7,74,30.12,10.0,Calm,Calm,-,N/A,,Clear,0,2013-05-22 10:35:00
4:55 AM,20.7,14.0,75,30.12,10.0,Calm,Calm,-,N/A,,Clear,0,2013-05-22 10:55:00
5:15 AM,21.4,14.0,73,30.13,10.0,Calm,Calm,-,N/A,,Clear,0,2013-05-22 11:15:00
5:35 AM,19.8,12.7,74,30.13,10.0,Calm,Calm,-,N/A,,Clear,0,2013-05-22 11:35:00
5:55 AM,20.3,14.4,78,30.13,10.0,Calm,Calm,-,N/A,,Clear,0,2013-05-22 11:55:00
6:15 AM,23.0,15.4,73,30.14,10.0,Calm,Calm,-,N/A,,Clear,0,2013-05-22 12:15:00
6:35 AM,23.4,17.2,77,30.14,10.0,Calm,Calm,-,N/A,,Clear,0,2013-05-22 12:35:00
6:55 AM,27.1,18.5,70,30.14,10.0,Calm,Calm,-,N/A,,Clear,0,2013-05-22 12:55:00
7:15 AM,31.5,20.7,64,30.15,10.0,Calm,Calm,-,N/A,,Clear,0,2013-05-22 13:15:00
7:35 AM,35.4,21.9,58,30.16,10.0,Calm,Calm,-,N/A,,Clear,0,2013-05-22 13:35:00
7:55 AM,38.5,23.9,56,30.16,10.0,Calm,Calm,-,N/A,,Clear,0,2013-05-22 13:55:00
8:15 AM,40.6,24.6,53,30.16,10.0,Calm,Calm,-,N/A,,Clear,0,2013-05-22 14:15:00
8:35 AM,44.6,24.8,46,30.16,10.0,Calm,Calm,-,N/A,,Clear,0,2013-05-22 14:35:00
8:55 AM,48.9,26.4,42,30.16,10.0,Calm,Calm,-,N/A,,Clear,0,2013-05-22 14:55:00
9:15 AM,52.0,27.5,39,30.15,10.0,Calm,Calm,-,N/A,,Clear,0,2013-05-22 15:15:00
9:35 AM,57.7,22.3,25,30.15,10.0,Calm,Calm,-,N/A,,Clear,0,2013-05-22 15:35:00
9:55 AM,60.3,21.7,23,30.14,10.0,Calm,Calm,-,N/A,,Clear,0,2013-05-22 15:55:00
10:15 AM,62.2,19.4,19,30.15,10.0,West,10.4,21.9,N/A,,Clear,270,2013-05-22 16:15:00
10:35 AM,61.5,16.3,17,30.15,10.0,West,15.0,18.4,N/A,,Clear,270,2013-05-22 16:35:00
10:55 AM,61.9,16.9,17,30.14,10.0,West,13.8,18.4,N/A,,Clear,270,2013-05-22 16:55:00
11:15 AM,63.5,19.0,18,30.14,10.0,West,12.7,19.6,N/A,,Clear,270,2013-05-22 17:15:00
11:35 AM,64.0,17.6,17,30.14,10.0,WSW,9.2,20.7,N/A,,Clear,240,2013-05-22 17:35:00
11:55 AM,65.3,17.4,16,30.14,10.0,WNW,8.1,21.9,N/A,,Clear,300,2013-05-22 17:55:00
12:15 PM,65.3,17.8,16,30.14,10.0,West,13.8,19.6,N/A,,Clear,270,2013-05-22 18:15:00
12:55 PM,66.4,17.6,15,30.12,10.0,SW,10.4,18.4,N/A,,Clear,230,2013-05-22 18:55:00
1:15 PM,66.7,18.1,16,30.12,10.0,West,16.1,21.9,N/A,,Clear,280,2013-05-22 19:15:00
1:35 PM,67.5,17.6,15,30.11,10.0,SSW,12.7,17.3,N/A,,Clear,200,2013-05-22 19:35:00
1:55 PM,70.0,16.9,13,30.11,10.0,SW,15.0,23.0,N/A,,Clear,220,2013-05-22 19:55:00
2:15 PM,67.5,15.3,13,30.10,10.0,South,5.8,13.8,N/A,,Scattered Clouds,170,2013-05-22 20:15:00
2:35 PM,69.3,16.0,13,30.10,10.0,WSW,13.8,19.6,N/A,,Scattered Clouds,240,2013-05-22 20:35:00
2:55 PM,69.3,16.7,13,30.08,10.0,WSW,10.4,-,N/A,,Clear,250,2013-05-22 20:55:00
3:15 PM,70.7,14.2,11,30.08,10.0,SW,13.8,29.9,N/A,,Clear,220,2013-05-22 21:15:00
3:35 PM,69.4,14.0,12,30.08,10.0,NW,4.6,20.7,N/A,,Clear,310,2013-05-22 21:35:00
3:55 PM,70.0,15.8,13,30.08,10.0,West,12.7,26.5,N/A,,Clear,260,2013-05-22 21:55:00
4:15 PM,70.0,17.4,13,30.08,10.0,NW,10.4,15.0,N/A,,Clear,310,2013-05-22 22:15:00
4:35 PM,66.9,16.0,14,30.08,10.0,NW,10.4,21.9,N/A,,Clear,310,2013-05-22 22:35:00
4:55 PM,68.4,16.5,14,30.07,10.0,West,8.1,-,N/A,,Scattered Clouds,260,2013-05-22 22:55:00
5:15 PM,68.2,16.3,14,30.08,10.0,WNW,12.7,27.6,N/A,,Scattered Clouds,300,2013-05-22 23:15:00
5:35 PM,67.3,15.4,14,30.08,10.0,WNW,10.4,-,N/A,,Scattered Clouds,290,2013-05-22 23:35:00
5:55 PM,66.4,14.2,13,30.08,10.0,West,13.8,18.4,N/A,,Scattered Clouds,260,2013-05-22 23:55:00
6:15 PM,66.4,14.0,13,30.07,10.0,Calm,Calm,-,N/A,,Scattered Clouds,0,2013-05-23 00:15:00
6:35 PM,67.8,14.7,13,30.08,10.0,West,4.6,-,N/A,,Scattered Clouds,270,2013-05-23 00:35:00
6:55 PM,68.4,14.0,12,30.08,10.0,WSW,19.6,24.2,N/A,,Clear,250,2013-05-23 00:55:00
7:15 PM,65.1,12.4,13,30.08,10.0,WSW,12.7,-,N/A,,Clear,250,2013-05-23 01:15:00
7:35 PM,64.4,13.1,14,30.10,10.0,West,4.6,-,N/A,,Clear,280,2013-05-23 01:35:00
7:55 PM,60.8,14.0,16,30.10,10.0,South,3.5,-,N/A,,Clear,170,2013-05-23 01:55:00
8:15 PM,56.7,17.2,21,30.11,10.0,SSW,6.9,-,N/A,,Scattered Clouds,200,2013-05-23 02:15:00
8:35 PM,60.1,16.5,18,30.12,10.0,South,9.2,-,N/A,,Clear,170,2013-05-23 02:35:00
8:55 PM,55.6,17.6,23,30.13,10.0,West,4.6,-,N/A,,Scattered Clouds,260,2013-05-23 02:55:00
9:15 PM,53.8,18.1,25,30.14,10.0,Calm,Calm,-,N/A,,Scattered Clouds,0,2013-05-23 03:15:00
9:35 PM,51.3,18.7,28,30.15,10.0,Calm,Calm,-,N/A,,Scattered Clouds,0,2013-05-23 03:35:00
9:55 PM,45.5,18.9,35,30.16,10.0,NE,3.5,-,N/A,,Clear,50,2013-05-23 03:55:00
10:15 PM,46.6,17.2,31,30.16,10.0,Calm,Calm,-,N/A,,Clear,0,2013-05-23 04:15:00
10:35 PM,42.6,17.1,36,30.17,10.0,Calm,Calm,-,N/A,,Clear,0,2013-05-23 04:35:00
10:55 PM,42.6,16.9,35,30.17,10.0,Calm,Calm,-,N/A,,Scattered Clouds,0,2013-05-23 04:55:00
11:15 PM,43.3,17.4,35,30.17,10.0,Calm,Calm,-,N/A,,Mostly Cloudy,0,2013-05-23 05:15:00
11:35 PM,41.0,17.8,39,30.16,10.0,Calm,Calm,-,N/A,,Scattered Clouds,0,2013-05-23 05:35:00
11:55 PM,41.7,17.4,38,30.16,10.0,Calm,Calm,-,N/A,,Clear,0,2013-05-23 05:55:00